Location: Paddlesworth
(51.1000°N, 1.1333°E)
Time: 18:05:47
(UTC+00:00)

Iridium 4 Rocket - Pass Details

Date: 11 May 2021
Orbit: 583 x 906 km, 86.9° (Epoch: 21 June)

Event Time Altitude Azimuth Distance (km) Brightness Sun altitude
Exits shadow 21:30:57 14° 180° (S) 2,262 5.4 -14.2°
Maximum altitude 21:36:03 88° 91° (E) 909 3.8 -14.7°
Drops below altitude 10° 21:42:02 10° 4° (N) 2,601 7.1 -15.2°
Sets 21:44:29 0° 4° (N) 3,537 7.9 -15.4°
